Location: ????????
(38.4362°N, 22.8767°E)
Time: 04:14:20
(UTC+00:00)

FENGYUN 1C DEB - Pass Details

Date: 22 October 2025
Orbit: 841 x 1273 km, 99.2° (Epoch: 16 November)

Event Time Altitude Azimuth Distance (km) Brightness Sun altitude
Rises 02:06:12 0° 28° (NNE) 3,423 ? -31.6°
Reaches altitude 10° 02:08:57 10° 42° (NE) 2,510 ? -31.0°
Maximum altitude 02:13:27 25° 97° (E) 1,728 ? -30.2°
Drops below altitude 10° 02:18:11 10° 151° (SSE) 2,655 ? -29.3°
Sets 02:21:09 0° 164° (SSE) 3,665 ? -28.7°
